Location: *
(58.7167°N, 26.1833°E)
Time: 12:29:27
(UTC+00:00)

USA 267 - Pass Details

Date: 25 August 2019
Orbit: 1102 x 1106 km, 123.0° (Epoch: 17 October)

Event Time Altitude Azimuth Distance (km) Brightness Sun altitude
Rises 22:50:30 0° 118° (ESE) 3,917 6.0 -20.4°
Reaches altitude 10° 22:53:01 10° 121° (ESE) 2,961 5.3 -20.3°
Maximum altitude 22:59:30 62° 202° (SSW) 1,233 3.2 -20.2°
Drops below altitude 10° 23:06:00 10° 283° (WNW) 2,971 5.5 -20.0°
Sets 23:08:32 0° 287° (WNW) 3,931 6.2 -19.9°
